Time,TemperatureF,DewpointF,PressureIn,WindDirection,WindDirectionDegrees,WindSpeedMPH,WindSpeedGustMPH,Humidity,HourlyPrecipIn,Conditions,Clouds,dailyrainin,SoftwareType,DateUTC
2013-06-03 00:02:00,71.1,62.0,29.91,East,90,0.0,0.0,73,0.00,RA,,0.00,WeatherDisplay:10.37,2013-06-03 05:02:00,
2013-06-03 00:07:00,71.0,62.3,29.91,East,90,0.0,0.0,74,0.00,RA,,0.00,WeatherDisplay:10.37,2013-06-03 05:07:00,
2013-06-03 00:12:00,70.9,62.2,29.92,East,90,0.0,0.0,74,0.00,CLR,,0.00,WeatherDisplay:10.37,2013-06-03 05:12:00,
2013-06-03 00:17:00,70.8,62.5,29.92,East,90,0.0,0.0,75,0.00,CLR,,0.00,WeatherDisplay:10.37,2013-06-03 05:17:00,
2013-06-03 00:22:00,70.7,62.4,29.92,East,90,0.0,0.0,75,0.00,CLR,,0.00,WeatherDisplay:10.37,2013-06-03 05:22:00,
2013-06-03 00:27:00,70.5,62.2,29.92,East,90,0.0,0.0,75,0.00,CLR,,0.00,WeatherDisplay:10.37,2013-06-03 05:27:00,
2013-06-03 00:32:00,70.3,62.4,29.93,East,90,0.0,0.0,76,0.00,CLR,,0.00,WeatherDisplay:10.37,2013-06-03 05:32:00,
2013-06-03 00:37:00,70.0,62.1,29.93,East,90,0.0,0.0,76,0.00,CLR,,0.00,WeatherDisplay:10.37,2013-06-03 05:37:00,
2013-06-03 00:42:00,69.8,62.3,29.93,East,90,0.0,0.0,77,0.00,CLR,,0.00,WeatherDisplay:10.37,2013-06-03 05:42:00,
2013-06-03 00:47:00,69.5,62.0,29.93,East,90,0.0,0.0,77,0.00,CLR,,0.00,WeatherDisplay:10.37,2013-06-03 05:47:00,
2013-06-03 00:52:00,69.2,62.0,29.93,East,90,0.0,0.0,78,0.00,CLR,,0.00,WeatherDisplay:10.37,2013-06-03 05:52:00,
2013-06-03 00:57:00,69.0,62.2,29.93,East,90,0.0,0.0,79,0.00,CLR,,0.00,WeatherDisplay:10.37,2013-06-03 05:57:00,
2013-06-03 01:02:00,68.8,62.0,29.93,East,90,0.0,0.0,79,0.00,CLR,,0.00,WeatherDisplay:10.37,2013-06-03 06:02:00,
2013-06-03 01:07:00,68.6,62.2,29.93,East,90,0.0,0.0,80,0.00,CLR,,0.00,WeatherDisplay:10.37,2013-06-03 06:07:00,
2013-06-03 01:12:00,68.3,61.9,29.93,East,90,0.0,0.0,80,0.00,CLR,,0.00,WeatherDisplay:10.37,2013-06-03 06:12:00,
2013-06-03 01:17:00,68.1,62.0,29.92,East,90,0.0,0.0,81,0.00,CLR,,0.00,WeatherDisplay:10.37,2013-06-03 06:17:00,
2013-06-03 01:22:00,67.9,61.9,29.92,East,90,0.0,0.0,81,0.00,CLR,,0.00,WeatherDisplay:10.37,2013-06-03 06:22:00,
2013-06-03 01:27:00,67.7,61.7,29.92,East,90,0.0,0.0,81,0.00,CLR,,0.00,WeatherDisplay:10.37,2013-06-03 06:27:00,
2013-06-03 01:32:00,67.4,61.7,29.93,East,90,0.0,0.0,82,0.00,CLR,,0.00,WeatherDisplay:10.37,2013-06-03 06:32:00,
2013-06-03 01:37:00,67.2,61.5,29.92,East,90,0.0,0.0,82,0.00,CLR,,0.00,WeatherDisplay:10.37,2013-06-03 06:37:00,
2013-06-03 01:42:00,67.0,61.7,29.92,East,90,0.0,0.0,83,0.00,CLR,,0.00,WeatherDisplay:10.37,2013-06-03 06:42:00,
2013-06-03 01:47:00,66.9,61.9,29.93,East,90,0.0,0.0,84,0.00,CLR,,0.00,WeatherDisplay:10.37,2013-06-03 06:47:00,
2013-06-03 01:52:00,66.7,61.7,29.93,East,90,0.0,0.0,84,0.00,CLR,,0.00,WeatherDisplay:10.37,2013-06-03 06:52:00,
2013-06-03 01:57:00,66.6,61.6,29.93,East,90,0.0,0.0,84,0.00,CLR,,0.00,WeatherDisplay:10.37,2013-06-03 06:57:00,
2013-06-03 02:02:00,66.5,61.5,29.93,East,90,0.0,0.0,84,0.00,CLR,,0.00,WeatherDisplay:10.37,2013-06-03 07:02:00,
2013-06-03 02:07:00,66.4,61.8,29.92,East,90,0.0,0.0,85,0.00,CLR,,0.00,WeatherDisplay:10.37,2013-06-03 07:07:00,
2013-06-03 02:12:00,66.4,61.8,29.92,East,90,0.0,0.0,85,0.00,CLR,,0.00,WeatherDisplay:10.37,2013-06-03 07:12:00,
2013-06-03 02:17:00,66.4,61.8,29.92,East,90,0.0,0.0,85,0.00,CLR,,0.00,WeatherDisplay:10.37,2013-06-03 07:17:00,
2013-06-03 02:22:00,66.3,61.7,29.92,East,90,0.0,0.0,85,0.00,CLR,,0.00,WeatherDisplay:10.37,2013-06-03 07:22:00,
2013-06-03 02:27:00,66.3,62.0,29.92,East,90,0.0,0.0,86,0.00,CLR,,0.00,WeatherDisplay:10.37,2013-06-03 07:27:00,
2013-06-03 02:32:00,66.2,61.9,29.92,East,90,0.0,0.0,86,0.00,CLR,,0.00,WeatherDisplay:10.37,2013-06-03 07:32:00,
2013-06-03 02:37:00,66.2,61.9,29.92,East,90,0.0,0.0,86,0.00,CLR,,0.00,WeatherDisplay:10.37,2013-06-03 07:37:00,
2013-06-03 02:42:00,66.1,61.8,29.92,East,90,0.0,0.0,86,0.00,CLR,,0.00,WeatherDisplay:10.37,2013-06-03 07:42:00,
2013-06-03 02:47:00,66.0,61.7,29.91,East,90,0.0,0.0,86,0.00,CLR,,0.00,WeatherDisplay:10.37,2013-06-03 07:47:00,
2013-06-03 02:52:00,65.9,61.6,29.91,East,90,0.0,0.0,86,0.00,CLR,,0.00,WeatherDisplay:10.37,2013-06-03 07:52:00,
2013-06-03 02:57:00,65.8,61.5,29.91,East,90,1.2,1.2,86,0.00,CLR,,0.00,WeatherDisplay:10.37,2013-06-03 07:57:00,
2013-06-03 03:02:00,65.8,61.5,29.91,East,90,0.0,0.0,86,0.00,CLR,,0.00,WeatherDisplay:10.37,2013-06-03 08:02:00,
2013-06-03 03:07:00,65.7,61.4,29.92,East,90,0.0,0.0,86,0.00,CLR,,0.00,WeatherDisplay:10.37,2013-06-03 08:07:00,
2013-06-03 03:12:00,65.7,61.4,29.92,East,90,0.0,0.0,86,0.00,CLR,,0.00,WeatherDisplay:10.37,2013-06-03 08:12:00,
2013-06-03 03:17:00,65.7,61.7,29.92,East,90,0.0,0.0,87,0.00,CLR,,0.00,WeatherDisplay:10.37,2013-06-03 08:17:00,
2013-06-03 03:22:00,65.6,61.6,29.91,East,90,0.0,0.0,87,0.00,CLR,,0.00,WeatherDisplay:10.37,2013-06-03 08:22:00,
2013-06-03 03:27:00,65.6,61.6,29.91,East,90,0.0,0.0,87,0.00,CLR,,0.00,WeatherDisplay:10.37,2013-06-03 08:27:00,
2013-06-03 03:32:00,65.5,61.2,29.91,East,90,0.0,0.0,86,0.00,CLR,,0.00,WeatherDisplay:10.37,2013-06-03 08:32:00,
2013-06-03 03:37:00,65.5,61.5,29.91,East,90,0.0,0.0,87,0.00,CLR,,0.00,WeatherDisplay:10.37,2013-06-03 08:37:00,
2013-06-03 03:42:00,65.4,61.4,29.91,East,90,0.0,0.0,87,0.00,CLR,,0.00,WeatherDisplay:10.37,2013-06-03 08:42:00,
2013-06-03 03:47:00,65.4,61.4,29.91,East,90,0.0,0.0,87,0.00,CLR,,0.00,WeatherDisplay:10.37,2013-06-03 08:47:00,
2013-06-03 03:52:00,65.3,61.3,29.91,East,90,0.0,0.0,87,0.00,CLR,,0.00,WeatherDisplay:10.37,2013-06-03 08:52:00,
2013-06-03 03:57:00,65.2,61.2,29.91,East,90,0.0,0.0,87,0.00,CLR,,0.00,WeatherDisplay:10.37,2013-06-03 08:57:00,
2013-06-03 04:02:00,65.1,61.1,29.91,East,90,0.0,0.0,87,0.00,CLR,,0.00,WeatherDisplay:10.37,2013-06-03 09:02:00,
2013-06-03 04:07:00,65.1,61.5,29.91,East,90,0.0,0.0,88,0.00,CLR,,0.00,WeatherDisplay:10.37,2013-06-03 09:07:00,
2013-06-03 04:12:00,65.0,61.4,29.91,East,90,1.2,0.0,88,0.00,CLR,,0.00,WeatherDisplay:10.37,2013-06-03 09:12:00,
2013-06-03 04:17:00,64.8,60.8,29.91,East,90,4.0,4.0,87,0.00,CLR,,0.00,WeatherDisplay:10.37,2013-06-03 09:17:00,
2013-06-03 04:22:00,64.7,61.1,29.91,East,90,0.0,0.0,88,0.00,CLR,,0.00,WeatherDisplay:10.37,2013-06-03 09:22:00,
2013-06-03 04:27:00,64.7,61.1,29.91,East,90,0.0,0.0,88,0.00,CLR,,0.00,WeatherDisplay:10.37,2013-06-03 09:27:00,
2013-06-03 04:32:00,64.6,61.0,29.92,East,90,0.0,0.0,88,0.00,CLR,,0.00,WeatherDisplay:10.37,2013-06-03 09:32:00,
2013-06-03 04:37:00,64.5,60.9,29.92,East,90,0.0,0.0,88,0.00,CLR,,0.00,WeatherDisplay:10.37,2013-06-03 09:37:00,
2013-06-03 04:42:00,64.4,60.8,29.91,East,90,0.0,0.0,88,0.00,CLR,,0.00,WeatherDisplay:10.37,2013-06-03 09:42:00,
2013-06-03 04:47:00,64.4,60.8,29.91,East,90,0.0,0.0,88,0.00,CLR,,0.00,WeatherDisplay:10.37,2013-06-03 09:47:00,
2013-06-03 04:52:00,64.3,60.7,29.92,East,90,0.0,0.0,88,0.00,CLR,,0.00,WeatherDisplay:10.37,2013-06-03 09:52:00,
2013-06-03 04:57:00,64.2,60.6,29.92,East,90,1.2,0.0,88,0.00,CLR,,0.00,WeatherDisplay:10.37,2013-06-03 09:57:00,
2013-06-03 05:02:00,64.2,60.9,29.92,East,90,0.0,0.0,89,0.00,CLR,,0.00,WeatherDisplay:10.37,2013-06-03 10:02:00,
2013-06-03 05:07:00,64.1,60.8,29.93,East,90,0.0,0.0,89,0.00,CLR,,0.00,WeatherDisplay:10.37,2013-06-03 10:07:00,
2013-06-03 05:12:00,64.2,60.9,29.93,East,90,0.0,0.0,89,0.00,CLR,,0.00,WeatherDisplay:10.37,2013-06-03 10:12:00,
2013-06-03 05:17:00,64.2,60.9,29.93,East,90,0.0,0.0,89,0.00,CLR,,0.00,WeatherDisplay:10.37,2013-06-03 10:17:00,
2013-06-03 05:22:00,64.2,61.2,29.93,East,90,3.5,3.5,90,0.00,CLR,,0.00,WeatherDisplay:10.37,2013-06-03 10:22:00,
2013-06-03 05:27:00,64.2,61.2,29.93,East,90,3.5,3.5,90,0.00,CLR,,0.00,WeatherDisplay:10.37,2013-06-03 10:27:00,
2013-06-03 05:32:00,64.2,61.2,29.93,East,90,2.3,2.3,90,0.00,CLR,,0.00,WeatherDisplay:10.37,2013-06-03 10:32:00,
2013-06-03 05:37:00,64.1,61.1,29.93,East,87,2.3,0.0,90,0.00,CLR,,0.00,WeatherDisplay:10.37,2013-06-03 10:37:00,
2013-06-03 05:42:00,63.9,60.9,29.93,East,83,3.5,3.5,90,0.00,CLR,,0.00,WeatherDisplay:10.37,2013-06-03 10:42:00,
2013-06-03 05:47:00,63.8,60.8,29.93,East,83,0.0,0.0,90,0.00,CLR,,0.00,WeatherDisplay:10.37,2013-06-03 10:47:00,
2013-06-03 05:52:00,63.7,60.7,29.93,East,82,0.0,0.0,90,0.00,CLR,,0.00,WeatherDisplay:10.37,2013-06-03 10:52:00,
2013-06-03 05:57:00,63.6,60.6,29.93,East,82,0.0,0.0,90,0.00,CLR,,0.00,WeatherDisplay:10.37,2013-06-03 10:57:00,
2013-06-03 06:02:00,63.6,60.6,29.93,East,82,0.0,0.0,90,0.00,CLR,,0.00,WeatherDisplay:10.37,2013-06-03 11:02:00,
2013-06-03 06:07:00,63.6,60.6,29.93,East,82,2.3,2.3,90,0.00,CLR,,0.00,WeatherDisplay:10.37,2013-06-03 11:07:00,
2013-06-03 06:12:00,63.6,60.6,29.93,East,82,2.3,2.3,90,0.00,CLR,,0.00,WeatherDisplay:10.37,2013-06-03 11:12:00,
2013-06-03 06:17:00,63.6,60.6,29.93,East,81,1.0,0.0,90,0.00,CLR,,0.00,WeatherDisplay:10.37,2013-06-03 11:17:00,
2013-06-03 06:22:00,63.6,60.6,29.93,East,81,0.0,0.0,90,0.00,CLR,,0.00,WeatherDisplay:10.37,2013-06-03 11:22:00,
2013-06-03 06:27:00,63.6,60.9,29.93,East,80,0.0,0.0,91,0.00,CLR,,0.00,WeatherDisplay:10.37,2013-06-03 11:27:00,
2013-06-03 06:32:00,63.5,60.8,29.93,East,81,0.0,0.0,91,0.00,CLR,,0.00,WeatherDisplay:10.37,2013-06-03 11:32:00,
2013-06-03 06:37:00,63.5,60.8,29.93,East,81,0.0,0.0,91,0.00,CLR,,0.00,WeatherDisplay:10.37,2013-06-03 11:37:00,
2013-06-03 06:42:00,63.5,60.8,29.93,East,81,1.2,1.2,91,0.00,CLR,,0.00,WeatherDisplay:10.37,2013-06-03 11:42:00,
2013-06-03 06:47:00,63.5,60.8,29.94,East,80,0.0,0.0,91,0.00,CLR,,0.00,WeatherDisplay:10.37,2013-06-03 11:47:00,
2013-06-03 06:52:00,63.5,60.8,29.94,East,80,0.0,0.0,91,0.00,CLR,,0.00,WeatherDisplay:10.37,2013-06-03 11:52:00,
2013-06-03 06:57:00,63.5,60.8,29.94,East,81,0.0,0.0,91,0.00,CLR,,0.00,WeatherDisplay:10.37,2013-06-03 11:57:00,
2013-06-03 07:02:00,63.5,60.8,29.94,East,80,0.0,0.0,91,0.00,CLR,,0.00,WeatherDisplay:10.37,2013-06-03 12:02:00,
2013-06-03 07:07:00,63.6,60.9,29.93,East,81,0.0,0.0,91,0.00,CLR,,0.00,WeatherDisplay:10.37,2013-06-03 12:07:00,
2013-06-03 07:12:00,63.7,61.0,29.93,East,81,0.0,0.0,91,0.00,CLR,,0.00,WeatherDisplay:10.37,2013-06-03 12:12:00,
2013-06-03 07:17:00,63.8,61.1,29.93,East,80,0.0,0.0,91,0.00,CLR,,0.00,WeatherDisplay:10.37,2013-06-03 12:17:00,
2013-06-03 07:22:00,63.9,61.2,29.94,East,80,0.0,0.0,91,0.00,CLR,,0.00,WeatherDisplay:10.37,2013-06-03 12:22:00,
2013-06-03 07:27:00,64.0,61.3,29.93,East,81,0.0,0.0,91,0.00,CLR,,0.00,WeatherDisplay:10.37,2013-06-03 12:27:00,
2013-06-03 07:32:00,64.1,61.4,29.93,East,81,0.0,0.0,91,0.00,CLR,,0.00,WeatherDisplay:10.37,2013-06-03 12:32:00,
2013-06-03 07:37:00,64.2,61.5,29.93,East,80,0.0,0.0,91,0.00,CLR,,0.00,WeatherDisplay:10.37,2013-06-03 12:37:00,
2013-06-03 07:42:00,64.4,61.7,29.93,East,81,0.0,0.0,91,0.00,CLR,,0.00,WeatherDisplay:10.37,2013-06-03 12:42:00,
2013-06-03 07:47:00,64.5,61.8,29.93,East,80,0.0,0.0,91,0.00,CLR,,0.00,WeatherDisplay:10.37,2013-06-03 12:47:00,
2013-06-03 07:52:00,64.6,61.9,29.93,East,80,0.0,0.0,91,0.00,CLR,,0.00,WeatherDisplay:10.37,2013-06-03 12:52:00,
2013-06-03 07:57:00,64.8,62.1,29.93,East,81,0.0,0.0,91,0.00,CLR,,0.00,WeatherDisplay:10.37,2013-06-03 12:57:00,
2013-06-03 08:02:00,64.9,62.2,29.93,East,80,0.0,0.0,91,0.00,CLR,,0.00,WeatherDisplay:10.37,2013-06-03 13:02:00,
2013-06-03 08:07:00,65.1,62.4,29.93,East,80,0.0,0.0,91,0.00,CLR,,0.00,WeatherDisplay:10.37,2013-06-03 13:07:00,
2013-06-03 08:12:00,65.3,62.6,29.92,East,81,0.0,0.0,91,0.00,CLR,,0.00,WeatherDisplay:10.37,2013-06-03 13:12:00,
2013-06-03 08:17:00,65.7,63.3,29.93,East,81,0.0,0.0,92,0.00,CLR,,0.00,WeatherDisplay:10.37,2013-06-03 13:17:00,
2013-06-03 08:22:00,66.4,64.0,29.93,East,80,0.0,0.0,92,0.00,CLR,,0.00,WeatherDisplay:10.37,2013-06-03 13:22:00,
2013-06-03 08:27:00,67.4,65.3,29.93,East,80,0.0,0.0,93,0.00,CLR,,0.00,WeatherDisplay:10.37,2013-06-03 13:27:00,
2013-06-03 08:32:00,68.6,66.5,29.93,East,80,1.0,0.0,93,0.00,CLR,,0.00,WeatherDisplay:10.37,2013-06-03 13:32:00,
2013-06-03 08:37:00,68.9,66.8,29.93,East,81,0.0,0.0,93,0.00,CLR,,0.00,WeatherDisplay:10.37,2013-06-03 13:37:00,
2013-06-03 08:42:00,69.0,66.6,29.94,ENE,78,3.5,3.5,92,0.00,CLR,,0.00,WeatherDisplay:10.37,2013-06-03 13:42:00,
2013-06-03 08:47:00,69.2,66.5,29.94,ENE,78,0.0,0.0,91,0.00,CLR,,0.00,WeatherDisplay:10.37,2013-06-03 13:47:00,
2013-06-03 08:52:00,69.7,67.0,29.94,ENE,78,0.0,0.0,91,0.00,CLR,,0.00,WeatherDisplay:10.37,2013-06-03 13:52:00,
2013-06-03 08:57:00,70.1,67.0,29.94,ENE,77,0.0,0.0,90,0.00,CLR,,0.00,WeatherDisplay:10.37,2013-06-03 13:57:00,
2013-06-03 09:02:00,70.6,67.2,29.94,ENE,77,0.0,0.0,89,0.00,CLR,,0.00,WeatherDisplay:10.37,2013-06-03 14:02:00,
2013-06-03 09:07:00,71.1,67.7,29.95,ENE,77,0.0,0.0,89,0.00,CLR,,0.00,WeatherDisplay:10.37,2013-06-03 14:07:00,
2013-06-03 09:12:00,71.7,68.0,29.95,ENE,76,0.0,0.0,88,0.00,CLR,,0.00,WeatherDisplay:10.37,2013-06-03 14:12:00,
2013-06-03 09:17:00,72.2,68.1,29.94,ENE,77,0.0,0.0,87,0.00,CLR,,0.00,WeatherDisplay:10.37,2013-06-03 14:17:00,
2013-06-03 09:22:00,72.8,68.7,29.94,ENE,76,0.0,0.0,87,0.00,CLR,,0.00,WeatherDisplay:10.37,2013-06-03 14:22:00,
2013-06-03 09:27:00,73.6,69.2,29.94,East,96,7.0,7.0,86,0.00,CLR,,0.00,WeatherDisplay:10.37,2013-06-03 14:27:00,
2013-06-03 09:32:00,74.1,69.3,29.95,ESE,107,0.0,0.0,85,0.00,CLR,,0.00,WeatherDisplay:10.37,2013-06-03 14:32:00,
2013-06-03 09:37:00,74.7,68.8,29.94,ESE,107,0.0,0.0,82,0.00,CLR,,0.00,WeatherDisplay:10.37,2013-06-03 14:37:00,
2013-06-03 09:42:00,75.5,69.3,29.94,ESE,107,0.0,0.0,81,0.00,CLR,,0.00,WeatherDisplay:10.37,2013-06-03 14:42:00,
2013-06-03 09:47:00,75.9,68.5,29.94,ESE,107,3.5,3.5,78,0.00,CLR,,0.00,WeatherDisplay:10.37,2013-06-03 14:47:00,
2013-06-03 09:52:00,76.3,67.4,29.94,ESE,107,1.2,0.0,74,0.00,CLR,,0.00,WeatherDisplay:10.37,2013-06-03 14:52:00,
2013-06-03 09:57:00,76.9,67.6,29.94,ESE,118,0.0,0.0,73,0.00,CLR,,0.00,WeatherDisplay:10.37,2013-06-03 14:57:00,
2013-06-03 10:02:00,77.3,67.6,29.94,ESE,121,5.8,5.8,72,0.00,CLR,,0.00,WeatherDisplay:10.37,2013-06-03 15:02:00,
2013-06-03 10:07:00,77.6,67.9,29.94,SE,124,4.0,4.0,72,0.00,CLR,,0.00,WeatherDisplay:10.37,2013-06-03 15:07:00,
2013-06-03 10:12:00,78.0,67.0,29.93,SE,124,6.0,6.0,69,0.00,CLR,,0.00,WeatherDisplay:10.37,2013-06-03 15:12:00,
2013-06-03 10:17:00,78.6,67.2,29.93,SE,128,11.5,11.5,68,0.00,CLR,,0.00,WeatherDisplay:10.37,2013-06-03 15:17:00,
2013-06-03 10:22:00,78.7,66.8,29.93,SE,128,9.2,9.2,67,0.00,CLR,,0.00,WeatherDisplay:10.37,2013-06-03 15:22:00,
2013-06-03 10:27:00,78.8,65.1,29.93,ESE,123,4.6,4.6,63,0.00,CLR,,0.00,WeatherDisplay:10.37,2013-06-03 15:27:00,
2013-06-03 10:32:00,79.0,65.3,29.93,ESE,120,4.6,4.6,63,0.00,CLR,,0.00,WeatherDisplay:10.37,2013-06-03 15:32:00,
2013-06-03 10:37:00,79.1,65.9,29.93,ESE,115,5.8,5.8,64,0.00,CLR,,0.00,WeatherDisplay:10.37,2013-06-03 15:37:00,
2013-06-03 10:42:00,79.1,66.3,29.93,SE,142,10.4,10.4,65,0.00,CLR,,0.00,WeatherDisplay:10.37,2013-06-03 15:42:00,
2013-06-03 10:47:00,79.2,67.3,29.93,SE,142,2.3,2.3,67,0.00,CLR,,0.00,WeatherDisplay:10.37,2013-06-03 15:47:00,
2013-06-03 10:52:00,79.6,67.2,29.93,SE,142,3.5,3.5,66,0.00,CLR,,0.00,WeatherDisplay:10.37,2013-06-03 15:52:00,
2013-06-03 10:57:00,79.8,67.4,29.93,SSE,152,0.0,0.0,66,0.00,CLR,,0.00,WeatherDisplay:10.37,2013-06-03 15:57:00,
2013-06-03 11:02:00,79.8,67.4,29.93,SSE,153,0.0,0.2,66,0.00,CLR,,0.00,WeatherDisplay:10.37,2013-06-03 16:02:00,
2013-06-03 11:07:00,79.8,67.0,29.93,SE,129,3.5,3.5,65,0.00,CLR,,0.00,WeatherDisplay:10.37,2013-06-03 16:07:00,
2013-06-03 11:12:00,79.6,67.2,29.93,ESE,123,0.0,0.0,66,0.00,CLR,,0.00,WeatherDisplay:10.37,2013-06-03 16:12:00,
2013-06-03 11:17:00,79.6,66.8,29.92,SE,137,6.9,6.9,65,0.00,CLR,,0.00,WeatherDisplay:10.37,2013-06-03 16:17:00,
2013-06-03 11:22:00,79.7,67.3,29.92,SE,136,10.4,10.4,66,0.00,CLR,,0.00,WeatherDisplay:10.37,2013-06-03 16:22:00,
2013-06-03 11:27:00,80.0,67.2,29.92,SE,136,4.6,4.6,65,0.00,CLR,,0.00,WeatherDisplay:10.37,2013-06-03 16:27:00,
2013-06-03 11:32:00,80.2,66.9,29.92,ESE,123,7.0,7.0,64,0.00,CLR,,0.00,WeatherDisplay:10.37,2013-06-03 16:32:00,
2013-06-03 11:37:00,80.5,67.6,29.92,SE,125,6.0,6.0,65,0.00,CLR,,0.00,WeatherDisplay:10.37,2013-06-03 16:37:00,
2013-06-03 11:42:00,80.6,66.4,29.92,ESE,122,11.5,11.5,62,0.00,CLR,,0.00,WeatherDisplay:10.37,2013-06-03 16:42:00,
2013-06-03 11:47:00,80.8,66.6,29.92,ESE,121,0.0,0.0,62,0.00,CLR,,0.00,WeatherDisplay:10.37,2013-06-03 16:47:00,
2013-06-03 11:52:00,81.1,67.3,29.92,SE,129,8.1,8.1,63,0.00,CLR,,0.00,WeatherDisplay:10.37,2013-06-03 16:52:00,
2013-06-03 11:57:00,81.4,67.1,29.92,SE,146,9.2,9.2,62,0.00,CLR,,0.00,WeatherDisplay:10.37,2013-06-03 16:57:00,
2013-06-03 12:02:00,81.3,67.0,29.92,SE,146,4.6,4.6,62,0.00,CLR,,0.00,WeatherDisplay:10.37,2013-06-03 17:02:00,
2013-06-03 12:07:00,81.3,66.6,29.92,SE,145,2.3,2.3,61,0.00,CLR,,0.00,WeatherDisplay:10.37,2013-06-03 17:07:00,
2013-06-03 12:12:00,81.5,67.2,29.92,SE,141,6.9,6.9,62,0.00,CLR,,0.00,WeatherDisplay:10.37,2013-06-03 17:12:00,
2013-06-03 12:17:00,81.6,66.8,29.91,SSE,150,6.9,6.9,61,0.00,CLR,,0.00,WeatherDisplay:10.37,2013-06-03 17:17:00,
2013-06-03 12:22:00,81.9,66.6,29.91,SSE,159,4.6,4.6,60,0.00,CLR,,0.00,WeatherDisplay:10.37,2013-06-03 17:22:00,
2013-06-03 12:27:00,82.1,66.8,29.91,SSE,161,9.2,9.2,60,0.00,CLR,,0.00,WeatherDisplay:10.37,2013-06-03 17:27:00,
2013-06-03 12:32:00,82.4,66.6,29.91,SSE,160,3.5,3.5,59,0.00,CLR,,0.00,WeatherDisplay:10.37,2013-06-03 17:32:00,
2013-06-03 12:37:00,82.6,66.3,29.91,SSE,161,5.8,5.8,58,0.00,CLR,,0.00,WeatherDisplay:10.37,2013-06-03 17:37:00,
2013-06-03 12:42:00,82.7,67.4,29.90,SSE,155,10.4,10.4,60,0.00,CLR,,0.00,WeatherDisplay:10.37,2013-06-03 17:42:00,
2013-06-03 12:47:00,82.9,67.6,29.90,SSE,155,0.0,0.0,60,0.00,CLR,,0.00,WeatherDisplay:10.37,2013-06-03 17:47:00,
2013-06-03 12:52:00,83.2,67.4,29.90,SSE,152,5.0,5.0,59,0.00,CLR,,0.00,WeatherDisplay:10.37,2013-06-03 17:52:00,
2013-06-03 12:57:00,83.4,67.1,29.90,SE,146,5.8,5.8,58,0.00,CLR,,0.00,WeatherDisplay:10.37,2013-06-03 17:57:00,
2013-06-03 13:02:00,83.6,67.3,29.90,SE,128,6.9,6.9,58,0.00,CLR,,0.00,WeatherDisplay:10.37,2013-06-03 18:02:00,
2013-06-03 13:07:00,83.4,67.1,29.89,SE,126,2.3,2.3,58,0.00,CLR,,0.00,WeatherDisplay:10.37,2013-06-03 18:07:00,
2013-06-03 13:12:00,83.8,66.4,29.89,SE,126,4.6,4.6,56,0.00,CLR,,0.00,WeatherDisplay:10.37,2013-06-03 18:12:00,
2013-06-03 13:17:00,84.4,65.9,29.89,SE,128,3.5,3.5,54,0.00,CLR,,0.00,WeatherDisplay:10.37,2013-06-03 18:17:00,
2013-06-03 13:22:00,84.1,66.2,29.89,ESE,118,2.3,2.3,55,0.00,CLR,,0.00,WeatherDisplay:10.37,2013-06-03 18:22:00,
2013-06-03 13:27:00,84.1,66.7,29.89,ESE,117,0.0,0.0,56,0.00,CLR,,0.00,WeatherDisplay:10.37,2013-06-03 18:27:00,
2013-06-03 13:32:00,84.5,67.1,29.89,ESE,117,2.0,2.0,56,0.00,CLR,,0.00,WeatherDisplay:10.37,2013-06-03 18:32:00,
2013-06-03 13:37:00,84.8,67.4,29.89,ESE,114,0.0,0.0,56,0.00,CLR,,0.00,WeatherDisplay:10.37,2013-06-03 18:37:00,
2013-06-03 13:42:00,85.1,66.0,29.89,ESE,114,0.0,0.0,53,0.00,CLR,,0.00,WeatherDisplay:10.37,2013-06-03 18:42:00,
2013-06-03 13:47:00,85.2,67.2,29.88,ESE,114,1.2,1.2,55,0.00,CLR,,0.00,WeatherDisplay:10.37,2013-06-03 18:47:00,
2013-06-03 13:52:00,85.2,65.6,29.88,ESE,114,0.0,0.0,52,0.00,CLR,,0.00,WeatherDisplay:10.37,2013-06-03 18:52:00,
2013-06-03 13:57:00,85.1,66.0,29.88,ESE,114,0.0,0.0,53,0.00,CLR,,0.00,WeatherDisplay:10.37,2013-06-03 18:57:00,
2013-06-03 14:02:00,85.5,67.0,29.88,ESE,114,5.8,5.8,54,0.00,CLR,,0.00,WeatherDisplay:10.37,2013-06-03 19:02:00,
2013-06-03 14:07:00,85.7,67.7,29.87,ESE,115,0.0,0.0,55,0.00,CLR,,0.00,WeatherDisplay:10.37,2013-06-03 19:07:00,
2013-06-03 14:12:00,86.1,67.0,29.87,SE,135,6.0,6.0,53,0.00,CLR,,0.00,WeatherDisplay:10.37,2013-06-03 19:12:00,
2013-06-03 14:17:00,86.3,67.2,29.86,SE,134,0.0,0.0,53,0.00,CLR,,0.00,WeatherDisplay:10.37,2013-06-03 19:17:00,
2013-06-03 14:22:00,86.3,67.2,29.86,SE,133,6.9,6.9,53,0.00,CLR,,0.00,WeatherDisplay:10.37,2013-06-03 19:22:00,
2013-06-03 14:27:00,86.2,66.5,29.86,SE,128,0.0,0.0,52,0.00,CLR,,0.00,WeatherDisplay:10.37,2013-06-03 19:27:00,
2013-06-03 14:32:00,86.2,66.5,29.85,SE,144,9.2,9.2,52,0.00,CLR,,0.00,WeatherDisplay:10.37,2013-06-03 19:32:00,
2013-06-03 14:37:00,86.1,66.4,29.85,SE,130,11.5,11.5,52,0.00,CLR,,0.00,WeatherDisplay:10.37,2013-06-03 19:37:00,
2013-06-03 14:42:00,86.1,67.0,29.84,SE,126,11.5,11.5,53,0.00,CLR,,0.00,WeatherDisplay:10.37,2013-06-03 19:42:00,
2013-06-03 14:47:00,85.9,66.8,29.84,SE,128,4.6,4.6,53,0.00,CLR,,0.00,WeatherDisplay:10.37,2013-06-03 19:47:00,
2013-06-03 14:52:00,86.2,67.1,29.84,South,176,12.0,12.0,53,0.00,CLR,,0.00,WeatherDisplay:10.37,2013-06-03 19:52:00,
2013-06-03 14:57:00,86.3,66.0,29.84,South,170,5.8,5.8,51,0.00,CLR,,0.00,WeatherDisplay:10.37,2013-06-03 19:57:00,
2013-06-03 15:02:00,86.4,66.1,29.84,South,183,4.0,4.0,51,0.00,CLR,,0.00,WeatherDisplay:10.37,2013-06-03 20:02:00,
2013-06-03 15:07:00,86.6,66.9,29.83,SSE,148,5.8,5.8,52,0.00,CLR,,0.00,WeatherDisplay:10.37,2013-06-03 20:07:00,
2013-06-03 15:12:00,86.9,66.6,29.83,South,173,6.0,6.0,51,0.00,CLR,,0.00,WeatherDisplay:10.37,2013-06-03 20:12:00,
2013-06-03 15:17:00,87.0,65.5,29.83,South,173,9.2,9.2,49,0.00,CLR,,0.00,WeatherDisplay:10.37,2013-06-03 20:17:00,
2013-06-03 15:22:00,87.2,66.3,29.83,South,173,5.8,5.8,50,0.00,CLR,,0.00,WeatherDisplay:10.37,2013-06-03 20:22:00,
2013-06-03 15:27:00,87.5,66.6,29.83,SSE,148,10.4,10.4,50,0.00,CLR,,0.00,WeatherDisplay:10.37,2013-06-03 20:27:00,
2013-06-03 15:32:00,87.7,67.3,29.83,SE,140,11.5,11.5,51,0.00,CLR,,0.00,WeatherDisplay:10.37,2013-06-03 20:32:00,
2013-06-03 15:37:00,87.5,66.6,29.82,SE,140,4.6,4.6,50,0.00,CLR,,0.00,WeatherDisplay:10.37,2013-06-03 20:37:00,
2013-06-03 15:42:00,87.5,65.4,29.82,SSE,163,11.5,11.5,48,0.00,CLR,,0.00,WeatherDisplay:10.37,2013-06-03 20:42:00,
2013-06-03 15:47:00,87.7,67.3,29.82,SSE,151,11.0,11.0,51,0.00,CLR,,0.00,WeatherDisplay:10.37,2013-06-03 20:47:00,
2013-06-03 15:52:00,87.8,64.4,29.82,South,173,13.8,13.8,46,0.00,CLR,,0.00,WeatherDisplay:10.37,2013-06-03 20:52:00,
2013-06-03 15:57:00,87.8,66.8,29.81,South,185,7.0,7.0,50,0.00,CLR,,0.00,WeatherDisplay:10.37,2013-06-03 20:57:00,
2013-06-03 16:02:00,88.0,67.0,29.81,South,188,6.0,6.0,50,0.00,CLR,,0.00,WeatherDisplay:10.37,2013-06-03 21:02:00,
2013-06-03 16:07:00,87.9,67.5,29.81,SSE,147,9.2,9.2,51,0.00,CLR,,0.00,WeatherDisplay:10.37,2013-06-03 21:07:00,
2013-06-03 16:12:00,87.9,67.5,29.81,SE,146,4.0,4.0,51,0.00,CLR,,0.00,WeatherDisplay:10.37,2013-06-03 21:12:00,
2013-06-03 16:17:00,88.0,67.6,29.81,SE,146,3.5,3.5,51,0.00,CLR,,0.00,WeatherDisplay:10.37,2013-06-03 21:17:00,
2013-06-03 16:22:00,88.1,66.5,29.81,SSE,153,9.2,9.2,49,0.00,CLR,,0.00,WeatherDisplay:10.37,2013-06-03 21:22:00,
2013-06-03 16:27:00,88.0,66.4,29.80,SSE,163,5.0,5.0,49,0.00,CLR,,0.00,WeatherDisplay:10.37,2013-06-03 21:27:00,
2013-06-03 16:32:00,88.0,66.4,29.80,SSE,148,4.6,4.6,49,0.00,CLR,,0.00,WeatherDisplay:10.37,2013-06-03 21:32:00,
2013-06-03 16:37:00,88.0,66.4,29.80,SE,138,11.5,11.5,49,0.00,CLR,,0.00,WeatherDisplay:10.37,2013-06-03 21:37:00,
2013-06-03 16:42:00,88.1,66.5,29.80,SSE,155,4.6,4.6,49,0.00,CLR,,0.00,WeatherDisplay:10.37,2013-06-03 21:42:00,
2013-06-03 16:47:00,88.2,66.6,29.80,SSE,155,11.5,11.5,49,0.00,CLR,,0.00,WeatherDisplay:10.37,2013-06-03 21:47:00,
2013-06-03 16:52:00,88.1,67.1,29.80,SE,146,6.9,6.9,50,0.00,CLR,,0.00,WeatherDisplay:10.37,2013-06-03 21:52:00,
2013-06-03 16:57:00,88.4,66.8,29.80,SSE,156,6.0,6.0,49,0.00,CLR,,0.00,WeatherDisplay:10.37,2013-06-03 21:57:00,
2013-06-03 17:02:00,88.5,65.7,29.80,SSE,152,10.0,10.0,47,0.00,CLR,,0.00,WeatherDisplay:10.37,2013-06-03 22:02:00,
2013-06-03 17:07:00,88.5,65.1,29.80,South,169,10.4,10.4,46,0.00,CLR,,0.00,WeatherDisplay:10.37,2013-06-03 22:07:00,
2013-06-03 17:12:00,88.6,64.5,29.80,SSE,168,3.5,3.5,45,0.00,CLR,,0.00,WeatherDisplay:10.37,2013-06-03 22:12:00,
2013-06-03 17:17:00,88.7,64.6,29.80,South,171,6.9,6.9,45,0.00,CLR,,0.00,WeatherDisplay:10.37,2013-06-03 22:17:00,
2013-06-03 17:22:00,88.8,64.1,29.80,South,184,10.4,10.4,44,0.00,CLR,,0.00,WeatherDisplay:10.37,2013-06-03 22:22:00,
2013-06-03 17:27:00,88.8,64.7,29.80,South,187,10.4,10.4,45,0.00,CLR,,0.00,WeatherDisplay:10.37,2013-06-03 22:27:00,
2013-06-03 17:32:00,88.7,64.6,29.80,SSW,196,3.5,3.5,45,0.00,CLR,,0.00,WeatherDisplay:10.37,2013-06-03 22:32:00,
2013-06-03 17:37:00,88.7,65.3,29.80,SSE,161,8.1,8.1,46,0.00,CLR,,0.00,WeatherDisplay:10.37,2013-06-03 22:37:00,
2013-06-03 17:42:00,88.4,65.0,29.80,SSE,158,5.8,5.8,46,0.00,CLR,,0.00,WeatherDisplay:10.37,2013-06-03 22:42:00,
2013-06-03 17:47:00,88.5,63.8,29.80,SSE,158,6.0,6.0,44,0.00,CLR,,0.00,WeatherDisplay:10.37,2013-06-03 22:47:00,
2013-06-03 17:52:00,88.7,63.3,29.80,SSE,159,5.8,5.8,43,0.00,CLR,,0.00,WeatherDisplay:10.37,2013-06-03 22:52:00,
2013-06-03 17:57:00,88.9,64.8,29.80,SSE,159,4.0,4.0,45,0.00,CLR,,0.00,WeatherDisplay:10.37,2013-06-03 22:57:00,
2013-06-03 18:02:00,89.0,64.3,29.79,SSE,167,5.8,5.8,44,0.00,CLR,,0.00,WeatherDisplay:10.37,2013-06-03 23:02:00,
2013-06-03 18:07:00,89.1,64.3,29.79,SSE,167,3.5,3.5,44,0.00,CLR,,0.00,WeatherDisplay:10.37,2013-06-03 23:07:00,
2013-06-03 18:12:00,89.1,64.3,29.79,South,169,3.5,3.5,44,0.00,CLR,,0.00,WeatherDisplay:10.37,2013-06-03 23:12:00,
2013-06-03 18:17:00,89.1,64.3,29.79,SSE,167,3.5,3.5,44,0.00,CLR,,0.00,WeatherDisplay:10.37,2013-06-03 23:17:00,
2013-06-03 18:22:00,88.9,64.8,29.79,South,180,8.0,8.0,45,0.00,CLR,,0.00,WeatherDisplay:10.37,2013-06-03 23:22:00,
2013-06-03 18:27:00,88.8,65.4,29.79,South,184,3.5,3.5,46,0.00,CLR,,0.00,WeatherDisplay:10.37,2013-06-03 23:27:00,
2013-06-03 18:32:00,88.8,66.0,29.79,South,182,5.0,5.0,47,0.00,CLR,,0.00,WeatherDisplay:10.37,2013-06-03 23:32:00,
2013-06-03 18:37:00,88.7,65.3,29.79,South,179,4.6,4.6,46,0.00,CLR,,0.00,WeatherDisplay:10.37,2013-06-03 23:37:00,
2013-06-03 18:42:00,88.6,64.5,29.79,South,179,3.5,3.5,45,0.00,CLR,,0.00,WeatherDisplay:10.37,2013-06-03 23:42:00,
2013-06-03 18:47:00,88.6,65.2,29.79,South,179,3.5,3.5,46,0.00,CLR,,0.00,WeatherDisplay:10.37,2013-06-03 23:47:00,
2013-06-03 18:52:00,88.7,65.3,29.80,South,179,3.5,3.5,46,0.00,CLR,,0.00,WeatherDisplay:10.37,2013-06-03 23:52:00,
2013-06-03 18:57:00,88.7,65.9,29.79,South,179,3.5,3.5,47,0.00,CLR,,0.00,WeatherDisplay:10.37,2013-06-03 23:57:00,
2013-06-03 19:02:00,88.7,65.3,29.80,South,179,3.5,3.5,46,0.00,CLR,,0.00,WeatherDisplay:10.37,2013-06-04 00:02:00,
2013-06-03 19:07:00,88.7,65.3,29.80,South,179,4.6,4.6,46,0.00,CLR,,0.00,WeatherDisplay:10.37,2013-06-04 00:07:00,
2013-06-03 19:12:00,88.6,65.8,29.80,South,179,1.2,1.2,47,0.00,CLR,,0.00,WeatherDisplay:10.37,2013-06-04 00:12:00,
2013-06-03 19:17:00,88.5,66.3,29.80,South,179,0.0,0.0,48,0.00,CLR,,0.00,WeatherDisplay:10.37,2013-06-04 00:17:00,
2013-06-03 19:22:00,88.4,65.0,29.80,South,179,1.2,1.2,46,0.00,CLR,,0.00,WeatherDisplay:10.37,2013-06-04 00:22:00,
2013-06-03 19:27:00,88.3,66.1,29.80,South,179,4.6,4.6,48,0.00,CLR,,0.00,WeatherDisplay:10.37,2013-06-04 00:27:00,
2013-06-03 19:32:00,88.0,65.8,29.80,South,179,3.0,3.0,48,0.00,CLR,,0.00,WeatherDisplay:10.37,2013-06-04 00:32:00,
2013-06-03 19:37:00,87.9,65.8,29.80,South,179,0.0,0.0,48,0.00,CLR,,0.00,WeatherDisplay:10.37,2013-06-04 00:37:00,
2013-06-03 19:42:00,87.8,66.8,29.80,South,179,2.3,0.0,50,0.00,CLR,,0.00,WeatherDisplay:10.37,2013-06-04 00:42:00,
2013-06-03 19:47:00,87.7,66.8,29.80,South,179,0.0,0.0,50,0.00,CLR,,0.00,WeatherDisplay:10.37,2013-06-04 00:47:00,
2013-06-03 19:52:00,87.5,66.6,29.80,South,179,0.0,0.0,50,0.00,CLR,,0.00,WeatherDisplay:10.37,2013-06-04 00:52:00,
2013-06-03 19:57:00,87.2,66.9,29.80,South,179,0.0,0.0,51,0.00,CLR,,0.00,WeatherDisplay:10.37,2013-06-04 00:57:00,
2013-06-03 20:02:00,87.0,67.2,29.80,South,179,0.0,0.0,52,0.00,CLR,,0.00,WeatherDisplay:10.37,2013-06-04 01:02:00,
2013-06-03 20:07:00,86.6,68.0,29.80,South,179,0.0,0.0,54,0.00,CLR,,0.00,WeatherDisplay:10.37,2013-06-04 01:07:00,
2013-06-03 20:12:00,86.0,68.5,29.80,South,179,0.0,0.0,56,0.00,CLR,,0.00,WeatherDisplay:10.37,2013-06-04 01:12:00,
2013-06-03 20:17:00,85.3,68.3,29.80,South,179,0.0,0.0,57,0.00,CLR,,0.00,WeatherDisplay:10.37,2013-06-04 01:17:00,
2013-06-03 20:22:00,85.0,68.1,29.81,South,179,0.0,0.0,57,0.00,CLR,,0.00,WeatherDisplay:10.37,2013-06-04 01:22:00,
2013-06-03 20:28:00,84.9,68.0,29.81,South,179,0.0,0.0,57,0.00,CLR,,0.00,WeatherDisplay:10.37,2013-06-04 01:28:00,
2013-06-03 20:33:00,84.7,68.3,29.81,South,179,0.0,0.0,58,0.00,CLR,,0.00,WeatherDisplay:10.37,2013-06-04 01:33:00,
2013-06-03 20:38:00,84.4,68.5,29.81,South,179,0.0,0.0,59,0.00,CLR,,0.00,WeatherDisplay:10.37,2013-06-04 01:38:00,
2013-06-03 20:42:00,83.8,67.9,29.81,South,179,0.0,0.0,59,0.00,CLR,,0.00,WeatherDisplay:10.37,2013-06-04 01:42:00,
2013-06-03 20:47:00,83.3,68.0,29.81,South,179,0.0,0.0,60,0.00,CLR,,0.00,WeatherDisplay:10.37,2013-06-04 01:47:00,
2013-06-03 20:52:00,82.7,67.9,29.81,South,179,0.0,0.0,61,0.00,CLR,,0.00,WeatherDisplay:10.37,2013-06-04 01:52:00,
2013-06-03 20:57:00,82.1,67.8,29.81,South,179,0.0,0.0,62,0.00,CLR,,0.00,WeatherDisplay:10.37,2013-06-04 01:57:00,
2013-06-03 21:02:00,81.6,67.8,29.81,South,179,0.0,0.0,63,0.00,CLR,,0.00,WeatherDisplay:10.37,2013-06-04 02:02:00,
2013-06-03 21:07:00,81.0,67.7,29.82,South,179,0.0,0.0,64,0.00,CLR,,0.00,WeatherDisplay:10.37,2013-06-04 02:07:00,
2013-06-03 21:12:00,80.5,67.6,29.82,South,179,0.0,0.0,65,0.00,CLR,,0.00,WeatherDisplay:10.37,2013-06-04 02:12:00,
2013-06-03 21:17:00,79.9,67.1,29.82,South,179,0.0,0.0,65,0.00,CLR,,0.00,WeatherDisplay:10.37,2013-06-04 02:17:00,
2013-06-03 21:22:00,79.5,67.1,29.82,South,179,0.0,0.0,66,0.00,CLR,,0.00,WeatherDisplay:10.37,2013-06-04 02:22:00,
2013-06-03 21:27:00,79.1,67.2,29.82,South,179,0.0,0.0,67,0.00,CLR,,0.00,WeatherDisplay:10.37,2013-06-04 02:27:00,
2013-06-03 21:32:00,78.6,66.7,29.82,South,179,0.0,0.0,67,0.00,CLR,,0.00,WeatherDisplay:10.37,2013-06-04 02:32:00,
2013-06-03 21:37:00,78.2,66.8,29.82,South,179,0.0,0.0,68,0.00,CLR,,0.00,WeatherDisplay:10.37,2013-06-04 02:37:00,
2013-06-03 21:42:00,77.8,66.4,29.82,South,179,0.0,0.0,68,0.00,CLR,,0.00,WeatherDisplay:10.37,2013-06-04 02:42:00,
2013-06-03 21:47:00,77.4,66.4,29.82,South,179,0.0,0.0,69,0.00,CLR,,0.00,WeatherDisplay:10.37,2013-06-04 02:47:00,
2013-06-03 21:52:00,77.0,66.5,29.82,South,179,0.0,0.0,70,0.00,CLR,,0.00,WeatherDisplay:10.37,2013-06-04 02:52:00,
2013-06-03 21:57:00,76.7,66.2,29.83,South,179,0.0,0.0,70,0.00,CLR,,0.00,WeatherDisplay:10.37,2013-06-04 02:57:00,
2013-06-03 22:02:00,76.3,66.2,29.83,South,179,0.0,0.0,71,0.00,CLR,,0.00,WeatherDisplay:10.37,2013-06-04 03:02:00,
2013-06-03 22:07:00,76.0,65.9,29.83,South,179,0.0,0.0,71,0.00,CLR,,0.00,WeatherDisplay:10.37,2013-06-04 03:07:00,
2013-06-03 22:12:00,75.7,66.0,29.83,South,179,0.0,0.0,72,0.00,CLR,,0.00,WeatherDisplay:10.37,2013-06-04 03:12:00,
2013-06-03 22:17:00,75.4,65.7,29.83,South,179,0.0,0.0,72,0.00,CLR,,0.00,WeatherDisplay:10.37,2013-06-04 03:17:00,
2013-06-03 22:22:00,75.1,65.9,29.83,South,179,0.0,0.0,73,0.00,CLR,,0.00,WeatherDisplay:10.37,2013-06-04 03:22:00,
2013-06-03 22:27:00,74.9,65.7,29.83,South,179,0.0,0.0,73,0.00,CLR,,0.00,WeatherDisplay:10.37,2013-06-04 03:27:00,
2013-06-03 22:32:00,74.6,65.4,29.83,South,179,0.0,0.0,73,0.00,CLR,,0.00,WeatherDisplay:10.37,2013-06-04 03:32:00,
2013-06-03 22:37:00,74.4,65.6,29.83,South,179,0.0,0.0,74,0.00,CLR,,0.00,WeatherDisplay:10.37,2013-06-04 03:37:00,
2013-06-03 22:42:00,74.3,65.5,29.83,South,179,0.0,0.0,74,0.00,CLR,,0.00,WeatherDisplay:10.37,2013-06-04 03:42:00,
2013-06-03 22:47:00,74.0,65.2,29.83,South,179,0.0,0.0,74,0.00,CLR,,0.00,WeatherDisplay:10.37,2013-06-04 03:47:00,
2013-06-03 22:52:00,73.8,65.4,29.83,South,179,0.0,0.0,75,0.00,CLR,,0.00,WeatherDisplay:10.37,2013-06-04 03:52:00,
2013-06-03 22:57:00,73.6,65.2,29.84,South,179,0.0,0.0,75,0.00,CLR,,0.00,WeatherDisplay:10.37,2013-06-04 03:57:00,
2013-06-03 23:01:00,73.3,64.9,29.84,South,179,0.0,0.0,75,0.00,CLR,,0.00,WeatherDisplay:10.37,2013-06-04 04:01:00,
2013-06-03 23:02:00,73.3,64.9,29.84,South,179,0.0,0.0,75,0.00,CLR,,0.00,WeatherDisplay:10.37,2013-06-04 04:02:00,
2013-06-03 23:03:00,73.2,64.8,29.84,South,179,0.0,0.0,75,0.00,CLR,,0.00,WeatherDisplay:10.37,2013-06-04 04:03:00,
2013-06-03 23:08:00,72.9,64.5,29.83,South,179,0.0,0.0,75,0.00,CLR,,0.00,WeatherDisplay:10.37,2013-06-04 04:08:00,
2013-06-03 23:13:00,72.8,64.8,29.83,South,179,0.0,0.0,76,0.00,CLR,,0.00,WeatherDisplay:10.37,2013-06-04 04:13:00,
2013-06-03 23:18:00,72.6,65.0,29.84,South,179,0.0,0.0,77,0.00,CLR,,0.00,WeatherDisplay:10.37,2013-06-04 04:18:00,
2013-06-03 23:23:00,72.4,64.8,29.83,South,179,0.0,0.0,77,0.00,CLR,,0.00,WeatherDisplay:10.37,2013-06-04 04:23:00,
2013-06-03 23:28:00,72.2,64.6,29.83,South,179,0.0,0.0,77,0.00,CLR,,0.00,WeatherDisplay:10.37,2013-06-04 04:28:00,
2013-06-03 23:33:00,72.1,64.9,29.83,South,179,0.0,0.0,78,0.00,CLR,,0.00,WeatherDisplay:10.37,2013-06-04 04:33:00,
2013-06-03 23:38:00,71.9,64.7,29.83,South,179,0.0,0.0,78,0.00,CLR,,0.00,WeatherDisplay:10.37,2013-06-04 04:38:00,
2013-06-03 23:43:00,71.9,64.7,29.83,South,179,0.0,0.0,78,0.00,CLR,,0.00,WeatherDisplay:10.37,2013-06-04 04:43:00,
2013-06-03 23:48:00,71.7,64.8,29.83,South,179,0.0,0.0,79,0.00,CLR,,0.00,WeatherDisplay:10.37,2013-06-04 04:48:00,
2013-06-03 23:53:00,71.7,64.8,29.83,South,179,0.0,0.0,79,0.00,CLR,,0.00,WeatherDisplay:10.37,2013-06-04 04:53:00,
2013-06-03 23:58:00,71.7,64.8,29.84,South,173,6.9,6.9,79,0.00,CLR,,0.00,WeatherDisplay:10.37,2013-06-04 04:58:00,